Location: Sebastopol
(38.4021°N, 122.8239°W)
Time: 14:28:28
(UTC+00:00)

DELTA 2 R/B (1) - Pass Details

Date: 29 October 2020
Orbit: 790 x 803 km, 39.6° (Epoch: 30 November)

Event Time Altitude Azimuth Distance (km) Brightness Sun altitude
Exits shadow 12:19:25 36° 179° (S) 1,241 4.5 -27.1°
Drops below altitude 10° 12:23:28 10° 140° (SE) 2,365 6.5 -26.3°
Sets 12:26:04 0° 133° (SE) 3,294 7.4 -25.8°
